Location: Unspecified
(0.0000°N, 0.0000°E)
Time: 12:12:33
(UTC+02:00)

DELTA 2 R/B (1) - Visible Passes

Search period start: 22 September 2014 00:00
Search period end: 02 October 2014 00:00
Orbit: 790 x 805 km, 39.6° (Epoch: 20 September)

Date Brightness Start Highest point End Pass type
(mag) Time Alt. Az. Time Alt. Az. Time Alt. Az.
24 Sep 6.1 22:07:13 10° NNW 22:07:21 11° NNW 22:07:21 11° NNW visible
25 Sep 5.4 21:36:49 10° NNW 21:38:52 19° N 21:38:52 19° N visible
26 Sep 4.9 21:06:27 10° N 21:10:31 22° NE 21:10:31 22° NE visible
27 Sep 5.0 20:36:07 10° N 20:40:06 20° NE 20:42:18 16° ENE visible
27 Sep 5.6 22:21:00 10° WNW 22:23:09 24° WNW 22:23:09 24° WNW visible
28 Sep 5.2 20:05:50 10° N 20:09:29 18° NE 20:13:08 10° E visible
28 Sep 4.0 21:50:21 10° NW 21:55:04 59° W 21:55:04 59° W visible
29 Sep 3.6 21:19:44 10° NW 21:25:19 77° SW 21:27:06 44° SE visible
30 Sep 3.6 20:49:07 10° NW 20:54:44 87° SW 20:59:13 16° SE visible
30 Sep 6.3 22:38:50 10° WSW 22:40:06 12° SW 22:40:06 12° SW visible
01 Oct 3.6 20:18:32 10° NW 20:24:08 83° NE 20:29:44 10° SE visible
01 Oct 6.0 22:07:38 10° WSW 22:10:37 15° SW 22:12:16 13° SSW visible
